Time,TemperatureF,DewpointF,PressureIn,WindDirection,WindDirectionDegrees,WindSpeedMPH,WindSpeedGustMPH,Humidity,HourlyPrecipIn,Conditions,Clouds,dailyrainin,SoftwareType,DateUTC
2013-04-25 00:03:00,43.0,23.6,30.04,West,270,0.0,0.7,46,0.00,,,0.00,WUHU216HW,2013-04-25 07:03:00,
2013-04-25 00:08:00,42.8,23.4,30.03,West,270,0.9,1.1,46,0.00,,,0.00,WUHU216HW,2013-04-25 07:08:00,
2013-04-25 00:13:00,42.8,24.5,30.03,West,270,0.4,1.1,48,0.00,,,0.00,WUHU216HW,2013-04-25 07:13:00,
2013-04-25 00:18:00,42.5,24.1,30.03,West,270,0.4,0.9,48,0.00,,,0.00,WUHU216HW,2013-04-25 07:18:00,
2013-04-25 00:23:00,42.1,23.2,30.03,West,270,0.0,0.9,47,0.00,,,0.00,WUHU216HW,2013-04-25 07:23:00,
2013-04-25 00:28:00,41.9,23.0,30.03,West,270,0.0,1.1,47,0.00,,,0.00,WUHU216HW,2013-04-25 07:28:00,
2013-04-25 00:33:00,41.8,23.9,30.03,West,270,0.7,1.1,49,0.00,,,0.00,WUHU216HW,2013-04-25 07:33:00,
2013-04-25 00:38:00,41.4,23.6,30.03,West,270,0.7,1.1,49,0.00,,,0.00,WUHU216HW,2013-04-25 07:38:00,
2013-04-25 00:43:00,41.0,23.8,30.03,West,270,0.2,1.1,50,0.00,,,0.00,WUHU216HW,2013-04-25 07:43:00,
2013-04-25 00:48:00,40.7,23.4,30.03,West,270,0.4,1.1,50,0.00,,,0.00,WUHU216HW,2013-04-25 07:48:00,
2013-04-25 00:53:00,40.5,23.8,30.03,West,270,0.0,1.1,51,0.00,,,0.00,WUHU216HW,2013-04-25 07:53:00,
2013-04-25 00:58:00,40.1,23.4,30.03,West,270,0.4,0.9,51,0.00,,,0.00,WUHU216HW,2013-04-25 07:58:00,
2013-04-25 01:03:00,39.8,24.0,30.03,West,270,0.2,1.1,53,0.00,,,0.00,WUHU216HW,2013-04-25 08:03:00,
2013-04-25 01:08:00,39.6,23.8,30.03,West,270,1.1,1.1,53,0.00,,,0.00,WUHU216HW,2013-04-25 08:08:00,
2013-04-25 01:13:00,39.1,23.7,30.03,West,270,0.4,1.1,54,0.00,,,0.00,WUHU216HW,2013-04-25 08:13:00,
2013-04-25 01:18:00,38.5,23.7,30.03,West,270,1.1,1.1,55,0.00,,,0.00,WUHU216HW,2013-04-25 08:18:00,
2013-04-25 01:23:00,38.3,23.5,30.03,West,270,0.4,1.1,55,0.00,,,0.00,WUHU216HW,2013-04-25 08:23:00,
2013-04-25 01:28:00,38.2,23.3,30.03,West,270,0.0,1.1,55,0.00,,,0.00,WUHU216HW,2013-04-25 08:28:00,
2013-04-25 01:33:00,38.0,23.1,30.03,West,270,0.0,0.9,55,0.00,,,0.00,WUHU216HW,2013-04-25 08:33:00,
2013-04-25 01:38:00,38.0,23.1,30.03,West,270,0.2,0.9,55,0.00,,,0.00,WUHU216HW,2013-04-25 08:38:00,
2013-04-25 01:43:00,38.0,23.6,30.03,West,270,0.0,0.7,56,0.00,,,0.00,WUHU216HW,2013-04-25 08:43:00,
2013-04-25 01:48:00,37.8,23.4,30.03,West,270,0.0,0.9,56,0.00,,,0.00,WUHU216HW,2013-04-25 08:48:00,
2013-04-25 01:53:00,37.8,23.4,30.03,West,270,0.0,0.9,56,0.00,,,0.00,WUHU216HW,2013-04-25 08:53:00,
2013-04-25 01:58:00,37.8,23.4,30.03,West,270,0.0,0.2,56,0.00,,,0.00,WUHU216HW,2013-04-25 08:58:00,
2013-04-25 02:03:00,38.2,22.9,30.02,West,270,0.0,0.0,54,0.00,,,0.00,WUHU216HW,2013-04-25 09:03:00,
2013-04-25 02:08:00,38.2,22.9,30.02,West,270,1.3,1.3,54,0.00,,,0.00,WUHU216HW,2013-04-25 09:08:00,
2013-04-25 02:13:00,38.2,22.9,30.02,West,270,0.7,1.8,54,0.00,,,0.00,WUHU216HW,2013-04-25 09:13:00,
2013-04-25 02:18:00,38.2,22.9,30.02,West,270,0.7,1.8,54,0.00,,,0.00,WUHU216HW,2013-04-25 09:18:00,
2013-04-25 02:23:00,38.0,22.8,30.02,West,270,0.4,0.9,54,0.00,,,0.00,WUHU216HW,2013-04-25 09:23:00,
2013-04-25 02:28:00,38.2,22.9,30.02,West,270,0.4,1.3,54,0.00,,,0.00,WUHU216HW,2013-04-25 09:28:00,
2013-04-25 02:33:00,38.5,22.8,30.02,West,270,0.0,1.3,53,0.00,,,0.00,WUHU216HW,2013-04-25 09:33:00,
2013-04-25 02:38:00,38.5,22.8,30.03,SE,135,1.1,2.5,53,0.00,,,0.00,WUHU216HW,2013-04-25 09:38:00,
2013-04-25 02:43:00,38.5,22.3,30.02,SSE,158,1.1,2.5,52,0.00,,,0.00,WUHU216HW,2013-04-25 09:43:00,
2013-04-25 02:48:00,38.3,22.2,30.02,ESE,113,0.9,2.0,52,0.00,,,0.00,WUHU216HW,2013-04-25 09:48:00,
2013-04-25 02:53:00,38.0,21.9,30.02,SE,135,1.3,2.5,52,0.00,,,0.00,WUHU216HW,2013-04-25 09:53:00,
2013-04-25 02:58:00,38.0,21.9,30.02,South,180,1.3,2.5,52,0.00,,,0.00,WUHU216HW,2013-04-25 09:58:00,
2013-04-25 03:03:00,37.8,21.7,30.02,South,180,0.0,1.8,52,0.00,,,0.00,WUHU216HW,2013-04-25 10:03:00,
2013-04-25 03:08:00,37.4,21.4,30.02,South,180,0.2,0.7,52,0.00,,,0.00,WUHU216HW,2013-04-25 10:08:00,
2013-04-25 03:13:00,37.1,21.5,30.03,South,180,0.4,1.1,53,0.00,,,0.00,WUHU216HW,2013-04-25 10:13:00,
2013-04-25 03:18:00,37.1,21.5,30.03,South,180,0.4,1.1,53,0.00,,,0.00,WUHU216HW,2013-04-25 10:18:00,
2013-04-25 03:23:00,37.1,21.1,30.02,South,180,0.0,0.9,52,0.00,,,0.00,WUHU216HW,2013-04-25 10:23:00,
2013-04-25 03:28:00,36.9,21.3,30.02,SSW,203,0.2,1.3,53,0.00,,,0.00,WUHU216HW,2013-04-25 10:28:00,
2013-04-25 03:33:00,36.9,20.9,30.02,SSW,203,0.0,1.3,52,0.00,,,0.00,WUHU216HW,2013-04-25 10:33:00,
2013-04-25 03:38:00,36.9,20.9,30.02,SE,135,0.4,1.8,52,0.00,,,0.00,WUHU216HW,2013-04-25 10:38:00,
2013-04-25 03:43:00,36.9,20.9,30.02,South,180,0.7,2.5,52,0.00,,,0.00,WUHU216HW,2013-04-25 10:43:00,
2013-04-25 03:48:00,36.5,21.0,30.02,SSE,158,0.7,2.5,53,0.00,,,0.00,WUHU216HW,2013-04-25 10:48:00,
2013-04-25 03:53:00,36.4,20.9,30.02,SSW,203,0.4,0.9,53,0.00,,,0.00,WUHU216HW,2013-04-25 10:53:00,
2013-04-25 03:58:00,36.4,20.9,30.02,SSW,203,0.0,0.9,53,0.00,,,0.00,WUHU216HW,2013-04-25 10:58:00,
2013-04-25 04:03:00,36.0,20.5,30.02,SSW,203,0.0,0.9,53,0.00,,,0.00,WUHU216HW,2013-04-25 11:03:00,
2013-04-25 04:08:00,36.0,20.5,30.02,SSW,203,0.4,0.9,53,0.00,,,0.00,WUHU216HW,2013-04-25 11:08:00,
2013-04-25 04:13:00,36.0,21.0,30.02,SSW,203,0.4,1.3,54,0.00,,,0.00,WUHU216HW,2013-04-25 11:13:00,
2013-04-25 04:18:00,36.0,21.0,30.02,SSE,158,0.4,2.5,54,0.00,,,0.00,WUHU216HW,2013-04-25 11:18:00,
2013-04-25 04:23:00,36.0,21.0,30.02,SSE,158,2.5,2.9,54,0.00,,,0.00,WUHU216HW,2013-04-25 11:23:00,
2013-04-25 04:28:00,36.2,21.5,30.02,SE,135,3.4,3.6,55,0.00,,,0.00,WUHU216HW,2013-04-25 11:28:00,
2013-04-25 04:33:00,36.4,21.2,30.02,SSE,158,1.8,3.6,54,0.00,,,0.00,WUHU216HW,2013-04-25 11:33:00,
2013-04-25 04:38:00,36.5,21.4,30.02,SE,135,2.5,4.0,54,0.00,,,0.00,WUHU216HW,2013-04-25 11:38:00,
2013-04-25 04:43:00,36.5,21.4,30.02,SSW,203,0.9,4.0,54,0.00,,,0.00,WUHU216HW,2013-04-25 11:43:00,
2013-04-25 04:48:00,36.4,21.2,30.02,SSW,203,0.4,2.5,54,0.00,,,0.00,WUHU216HW,2013-04-25 11:48:00,
2013-04-25 04:53:00,36.4,21.2,30.02,SSW,203,0.4,1.1,54,0.00,,,0.00,WUHU216HW,2013-04-25 11:53:00,
2013-04-25 04:58:00,36.2,21.5,30.03,South,180,1.1,2.5,55,0.00,,,0.00,WUHU216HW,2013-04-25 11:58:00,
2013-04-25 05:03:00,35.8,21.7,30.03,South,180,0.0,2.5,56,0.00,,,0.00,WUHU216HW,2013-04-25 12:03:00,
2013-04-25 05:08:00,35.6,21.1,30.03,South,180,0.0,1.1,55,0.00,,,0.00,WUHU216HW,2013-04-25 12:08:00,
2013-04-25 05:13:00,35.3,21.2,30.03,South,180,0.9,0.9,56,0.00,,,0.00,WUHU216HW,2013-04-25 12:13:00,
2013-04-25 05:17:00,34.9,20.8,30.03,South,180,0.0,0.9,56,0.00,,,0.00,WUHU216HW,2013-04-25 12:17:00,
2013-04-25 05:22:00,34.7,20.6,30.03,South,180,0.0,0.9,56,0.00,,,0.00,WUHU216HW,2013-04-25 12:22:00,
2013-04-25 05:27:00,34.6,20.4,30.03,South,180,0.0,1.1,56,0.00,,,0.00,WUHU216HW,2013-04-25 12:27:00,
2013-04-25 05:32:00,34.2,20.9,30.03,South,180,0.0,1.1,58,0.00,,,0.00,WUHU216HW,2013-04-25 12:32:00,
2013-04-25 05:37:00,34.2,20.5,30.03,South,180,0.0,0.4,57,0.00,,,0.00,WUHU216HW,2013-04-25 12:37:00,
2013-04-25 05:42:00,34.2,20.9,30.03,South,180,0.0,0.4,58,0.00,,,0.00,WUHU216HW,2013-04-25 12:42:00,
2013-04-25 05:47:00,34.0,21.2,30.03,South,180,0.0,0.0,59,0.00,,,0.00,WUHU216HW,2013-04-25 12:47:00,
2013-04-25 05:52:00,33.8,20.5,30.03,South,180,0.0,0.0,58,0.00,,,0.00,WUHU216HW,2013-04-25 12:52:00,
2013-04-25 05:57:00,34.0,20.7,30.03,South,180,0.4,0.7,58,0.00,,,0.00,WUHU216HW,2013-04-25 12:57:00,
2013-04-25 06:02:00,34.0,22.0,30.03,South,180,0.0,0.7,61,0.00,,,0.00,WUHU216HW,2013-04-25 13:02:00,
2013-04-25 06:07:00,34.2,21.3,30.03,South,180,0.7,1.8,59,0.00,,,0.00,WUHU216HW,2013-04-25 13:07:00,
2013-04-25 06:12:00,34.4,21.1,30.03,South,180,0.7,1.8,58,0.00,,,0.00,WUHU216HW,2013-04-25 13:12:00,
2013-04-25 06:17:00,34.6,22.1,30.03,South,180,0.0,1.1,60,0.00,,,0.00,WUHU216HW,2013-04-25 13:17:00,
2013-04-25 06:22:00,34.4,21.5,30.03,South,180,0.7,1.1,59,0.00,,,0.00,WUHU216HW,2013-04-25 13:22:00,
2013-04-25 06:27:00,34.6,21.2,30.03,South,180,0.4,1.1,58,0.00,,,0.00,WUHU216HW,2013-04-25 13:27:00,
2013-04-25 06:32:00,34.7,21.4,30.03,South,180,0.2,1.1,58,0.00,,,0.00,WUHU216HW,2013-04-25 13:32:00,
2013-04-25 06:37:00,34.7,21.1,30.03,South,180,0.7,1.3,57,0.00,,,0.00,WUHU216HW,2013-04-25 13:37:00,
2013-04-25 06:42:00,34.7,21.4,30.03,South,180,0.0,1.3,58,0.00,,,0.00,WUHU216HW,2013-04-25 13:42:00,
2013-04-25 06:47:00,34.9,21.6,30.03,South,180,0.0,0.7,58,0.00,,,0.00,WUHU216HW,2013-04-25 13:47:00,
2013-04-25 06:52:00,34.9,22.5,30.04,South,180,0.2,0.4,60,0.00,,,0.00,WUHU216HW,2013-04-25 13:52:00,
2013-04-25 06:57:00,34.9,22.5,30.04,South,180,0.0,1.1,60,0.00,,,0.00,WUHU216HW,2013-04-25 13:57:00,
2013-04-25 07:02:00,35.1,22.7,30.04,South,180,0.0,1.1,60,0.00,,,0.00,WUHU216HW,2013-04-25 14:02:00,
2013-04-25 07:07:00,35.6,23.2,30.04,South,180,0.0,0.4,60,0.00,,,0.00,WUHU216HW,2013-04-25 14:07:00,
2013-04-25 07:12:00,36.2,23.7,30.04,South,180,0.0,0.4,60,0.00,,,0.00,WUHU216HW,2013-04-25 14:12:00,
2013-04-25 07:17:00,36.7,24.2,30.04,South,180,0.0,0.0,60,0.00,,,0.00,WUHU216HW,2013-04-25 14:17:00,
2013-04-25 07:22:00,37.1,24.1,30.04,South,180,0.0,0.0,59,0.00,,,0.00,WUHU216HW,2013-04-25 14:22:00,
2013-04-25 07:27:00,37.8,24.3,30.04,South,180,0.2,0.2,58,0.00,,,0.00,WUHU216HW,2013-04-25 14:27:00,
2013-04-25 07:32:00,38.7,23.4,30.05,South,180,2.2,2.9,54,0.00,,,0.00,WUHU216HW,2013-04-25 14:32:00,
2013-04-25 07:37:00,39.1,23.7,30.05,ESE,113,1.8,2.9,54,0.00,,,0.00,WUHU216HW,2013-04-25 14:37:00,
2013-04-25 07:42:00,39.2,22.6,30.05,SSE,158,1.8,4.0,51,0.00,,,0.00,WUHU216HW,2013-04-25 14:42:00,
2013-04-25 07:47:00,39.4,22.8,30.05,South,180,0.7,4.0,51,0.00,,,0.00,WUHU216HW,2013-04-25 14:47:00,
2013-04-25 07:52:00,39.6,22.9,30.04,South,180,1.3,3.8,51,0.00,,,0.00,WUHU216HW,2013-04-25 14:52:00,
2013-04-25 07:57:00,40.1,23.4,30.05,ESE,113,2.5,3.4,51,0.00,,,0.00,WUHU216HW,2013-04-25 14:57:00,
2013-04-25 08:02:00,41.0,23.2,30.05,ESE,113,0.4,3.4,49,0.00,,,0.00,WUHU216HW,2013-04-25 15:02:00,
2013-04-25 08:07:00,41.6,23.8,30.05,SSE,158,4.5,4.5,49,0.00,,,0.00,WUHU216HW,2013-04-25 15:07:00,
2013-04-25 08:12:00,42.3,23.4,30.04,SE,135,3.4,4.5,47,0.00,,,0.00,WUHU216HW,2013-04-25 15:12:00,
2013-04-25 08:17:00,42.5,24.1,30.05,SE,135,3.1,4.5,48,0.00,,,0.00,WUHU216HW,2013-04-25 15:17:00,
2013-04-25 08:22:00,43.2,24.3,30.04,South,180,1.3,4.0,47,0.00,,,0.00,WUHU216HW,2013-04-25 15:22:00,
2013-04-25 08:27:00,43.6,25.1,30.04,SE,135,2.5,4.0,48,0.00,,,0.00,WUHU216HW,2013-04-25 15:27:00,
2013-04-25 08:32:00,44.5,24.8,30.04,SE,135,2.5,5.4,46,0.00,,,0.00,WUHU216HW,2013-04-25 15:32:00,
2013-04-25 08:37:00,45.4,24.6,30.04,ESE,113,4.0,5.4,44,0.00,,,0.00,WUHU216HW,2013-04-25 15:37:00,
2013-04-25 08:42:00,46.1,25.2,30.04,SE,135,3.4,4.7,44,0.00,,,0.00,WUHU216HW,2013-04-25 15:42:00,
2013-04-25 08:47:00,47.2,25.7,30.04,SSE,158,4.7,4.7,43,0.00,,,0.00,WUHU216HW,2013-04-25 15:47:00,
2013-04-25 08:52:00,47.9,25.2,30.04,South,180,4.3,4.7,41,0.00,,,0.00,WUHU216HW,2013-04-25 15:52:00,
2013-04-25 08:57:00,48.8,26.7,30.04,SSW,203,3.6,4.7,42,0.00,,,0.00,WUHU216HW,2013-04-25 15:57:00,
2013-04-25 09:02:00,50.0,27.2,30.04,South,180,2.7,4.3,41,0.00,,,0.00,WUHU216HW,2013-04-25 16:02:00,
2013-04-25 09:07:00,51.8,26.9,30.04,East,90,1.3,4.0,38,0.00,,,0.00,WUHU216HW,2013-04-25 16:07:00,
2013-04-25 09:12:00,53.3,27.6,30.04,East,90,4.0,6.0,37,0.00,,,0.00,WUHU216HW,2013-04-25 16:12:00,
2013-04-25 09:17:00,54.7,26.6,30.03,SE,135,1.8,6.0,34,0.00,,,0.00,WUHU216HW,2013-04-25 16:17:00,
2013-04-25 09:22:00,56.2,27.3,30.03,SSE,158,2.5,4.5,33,0.00,,,0.00,WUHU216HW,2013-04-25 16:22:00,
2013-04-25 09:27:00,56.7,27.0,30.03,SSW,203,1.8,4.5,32,0.00,,,0.00,WUHU216HW,2013-04-25 16:27:00,
2013-04-25 09:32:00,56.9,27.2,30.03,ESE,113,1.8,5.1,32,0.00,,,0.00,WUHU216HW,2013-04-25 16:32:00,
2013-04-25 09:37:00,57.2,27.6,30.03,SSE,158,2.0,5.1,32,0.00,,,0.00,WUHU216HW,2013-04-25 16:37:00,
2013-04-25 09:42:00,57.8,28.0,30.03,South,180,1.8,4.7,32,0.00,,,0.00,WUHU216HW,2013-04-25 16:42:00,
2013-04-25 09:47:00,58.9,28.3,30.03,SE,135,4.0,4.7,31,0.00,,,0.00,WUHU216HW,2013-04-25 16:47:00,
2013-04-25 09:52:00,59.0,28.5,30.03,East,90,2.9,5.4,31,0.00,,,0.00,WUHU216HW,2013-04-25 16:52:00,
2013-04-25 09:57:00,59.4,28.0,30.03,ENE,68,3.8,5.4,30,0.00,,,0.00,WUHU216HW,2013-04-25 16:57:00,
2013-04-25 10:02:00,59.9,28.4,30.03,East,90,3.6,4.7,30,0.00,,,0.00,WUHU216HW,2013-04-25 17:02:00,
2013-04-25 10:07:00,60.1,29.4,30.03,ESE,113,3.4,6.7,31,0.00,,,0.00,WUHU216HW,2013-04-25 17:07:00,
2013-04-25 10:12:00,61.2,28.5,30.03,ESE,113,3.8,6.7,29,0.00,,,0.00,WUHU216HW,2013-04-25 17:12:00,
2013-04-25 10:17:00,61.9,28.2,30.03,ENE,68,3.1,4.9,28,0.00,,,0.00,WUHU216HW,2013-04-25 17:17:00,
2013-04-25 10:22:00,62.6,27.9,30.03,ESE,113,4.0,4.9,27,0.00,,,0.00,WUHU216HW,2013-04-25 17:22:00,
2013-04-25 10:27:00,63.7,26.8,30.04,East,90,1.1,4.9,25,0.00,,,0.00,WUHU216HW,2013-04-25 17:27:00,
2013-04-25 10:32:00,64.3,28.3,30.03,East,90,3.4,6.0,26,0.00,,,0.00,WUHU216HW,2013-04-25 17:32:00,
2013-04-25 10:37:00,65.0,27.9,30.04,SSW,203,1.8,6.0,25,0.00,,,0.00,WUHU216HW,2013-04-25 17:37:00,
2013-04-25 10:42:00,65.0,27.9,30.03,East,90,3.4,4.3,25,0.00,,,0.00,WUHU216HW,2013-04-25 17:42:00,
2013-04-25 10:47:00,65.0,27.9,30.04,SSE,158,0.7,4.3,25,0.00,,,0.00,WUHU216HW,2013-04-25 17:47:00,
2013-04-25 10:52:00,65.5,27.4,30.04,ESE,113,2.2,5.4,24,0.00,,,0.00,WUHU216HW,2013-04-25 17:52:00,
2013-04-25 10:57:00,66.1,25.8,30.04,SE,135,3.1,5.4,22,0.00,,,0.00,WUHU216HW,2013-04-25 17:57:00,
2013-04-25 11:02:00,66.4,27.1,30.04,SE,135,2.2,4.9,23,0.00,,,0.00,WUHU216HW,2013-04-25 18:02:00,
2013-04-25 11:07:00,67.0,28.6,30.03,SSE,158,2.9,4.0,24,0.00,,,0.00,WUHU216HW,2013-04-25 18:07:00,
2013-04-25 11:12:00,67.0,28.6,30.03,SSE,158,0.9,4.0,24,0.00,,,0.00,WUHU216HW,2013-04-25 18:12:00,
2013-04-25 11:17:00,67.5,28.1,30.03,WNW,293,1.3,4.0,23,0.00,,,0.00,WUHU216HW,2013-04-25 18:17:00,
2013-04-25 11:22:00,67.7,28.3,30.03,ENE,68,0.7,3.8,23,0.00,,,0.00,WUHU216HW,2013-04-25 18:22:00,
2013-04-25 11:27:00,67.9,28.4,30.03,SE,135,1.1,3.8,23,0.00,,,0.00,WUHU216HW,2013-04-25 18:27:00,
2013-04-25 11:32:00,68.8,29.2,30.03,ENE,68,4.0,4.7,23,0.00,,,0.00,WUHU216HW,2013-04-25 18:32:00,
2013-04-25 11:37:00,68.6,29.0,30.03,WNW,293,0.7,4.7,23,0.00,,,0.00,WUHU216HW,2013-04-25 18:37:00,
2013-04-25 11:42:00,68.4,30.8,30.03,SW,225,3.4,4.9,25,0.00,,,0.00,WUHU216HW,2013-04-25 18:42:00,
2013-04-25 11:47:00,68.4,29.8,30.03,East,90,4.0,4.9,24,0.00,,,0.00,WUHU216HW,2013-04-25 18:47:00,
2013-04-25 11:52:00,69.1,31.4,30.03,NNW,338,1.6,4.7,25,0.00,,,0.00,WUHU216HW,2013-04-25 18:52:00,
2013-04-25 11:57:00,69.8,32.0,30.03,North,0,7.4,7.4,25,0.00,,,0.00,WUHU216HW,2013-04-25 18:57:00,
2013-04-25 12:02:00,70.2,32.3,30.03,NW,315,4.5,8.5,25,0.00,,,0.00,WUHU216HW,2013-04-25 19:02:00,
2013-04-25 12:07:00,70.2,32.3,30.03,SSW,203,2.2,8.5,25,0.00,,,0.00,WUHU216HW,2013-04-25 19:07:00,
2013-04-25 12:12:00,70.2,32.3,30.03,NNE,23,7.4,11.6,25,0.00,,,0.00,WUHU216HW,2013-04-25 19:12:00,
2013-04-25 12:17:00,70.6,33.7,30.03,North,0,3.4,11.6,26,0.00,,,0.00,WUHU216HW,2013-04-25 19:17:00,
2013-04-25 12:22:00,71.3,33.3,30.03,North,0,4.7,8.3,25,0.00,,,0.00,WUHU216HW,2013-04-25 19:22:00,
2013-04-25 12:27:00,71.3,33.3,30.03,North,0,4.5,8.3,25,0.00,,,0.00,WUHU216HW,2013-04-25 19:27:00,
2013-04-25 12:32:00,71.3,33.3,30.03,West,270,2.9,7.6,25,0.00,,,0.00,WUHU216HW,2013-04-25 19:32:00,
2013-04-25 12:37:00,71.6,33.6,30.03,North,0,5.4,6.5,25,0.00,,,0.00,WUHU216HW,2013-04-25 19:37:00,
2013-04-25 12:42:00,71.6,32.6,30.03,NNE,23,9.8,10.5,24,0.00,,,0.00,WUHU216HW,2013-04-25 19:42:00,
2013-04-25 12:47:00,70.2,33.4,30.03,North,0,5.1,10.5,26,0.00,,,0.00,WUHU216HW,2013-04-25 19:47:00,
2013-04-25 12:52:00,70.6,32.7,30.03,NE,45,6.3,10.3,25,0.00,,,0.00,WUHU216HW,2013-04-25 19:52:00,
2013-04-25 12:57:00,70.9,34.0,30.03,North,0,7.4,9.6,26,0.00,,,0.00,WUHU216HW,2013-04-25 19:57:00,
2013-04-25 13:02:00,71.5,34.5,30.03,NE,45,11.4,14.3,26,0.00,,,0.00,WUHU216HW,2013-04-25 20:02:00,
2013-04-25 13:07:00,70.9,36.0,30.03,North,0,10.5,14.3,28,0.00,,,0.00,WUHU216HW,2013-04-25 20:07:00,
2013-04-25 13:12:00,71.6,34.6,30.03,NE,45,10.5,11.4,26,0.00,,,0.00,WUHU216HW,2013-04-25 20:12:00,
2013-04-25 13:17:00,70.9,36.0,30.03,ENE,68,3.4,11.9,28,0.00,,,0.00,WUHU216HW,2013-04-25 20:17:00,
2013-04-25 13:22:00,70.7,35.8,30.03,North,0,8.7,12.1,28,0.00,,,0.00,WUHU216HW,2013-04-25 20:22:00,
2013-04-25 13:27:00,71.6,34.6,30.03,NE,45,3.4,12.1,26,0.00,,,0.00,WUHU216HW,2013-04-25 20:27:00,
2013-04-25 13:32:00,72.0,34.9,30.03,North,0,4.7,9.4,26,0.00,,,0.00,WUHU216HW,2013-04-25 20:32:00,
2013-04-25 13:37:00,72.7,35.5,30.03,NE,45,9.2,9.4,26,0.00,,,0.00,WUHU216HW,2013-04-25 20:37:00,
2013-04-25 13:42:00,73.1,35.8,30.03,North,0,11.0,11.0,26,0.00,,,0.00,WUHU216HW,2013-04-25 20:42:00,
2013-04-25 13:47:00,72.7,35.5,30.03,NNE,23,8.1,14.8,26,0.00,,,0.00,WUHU216HW,2013-04-25 20:47:00,
2013-04-25 13:52:00,73.1,35.8,30.03,NNE,23,10.5,14.8,26,0.00,,,0.00,WUHU216HW,2013-04-25 20:52:00,
2013-04-25 13:57:00,73.1,35.8,30.03,North,0,10.5,14.3,26,0.00,,,0.00,WUHU216HW,2013-04-25 20:57:00,
2013-04-25 14:02:00,72.5,35.4,30.03,North,0,8.7,12.1,26,0.00,,,0.00,WUHU216HW,2013-04-25 21:02:00,
2013-04-25 14:07:00,71.8,34.7,30.04,NNE,23,6.0,12.1,26,0.00,,,0.00,WUHU216HW,2013-04-25 21:07:00,
2013-04-25 14:12:00,70.7,35.8,30.04,NNW,338,4.5,13.4,28,0.00,,,0.00,WUHU216HW,2013-04-25 21:12:00,
2013-04-25 14:17:00,70.7,36.9,30.04,North,0,5.8,13.4,29,0.00,,,0.00,WUHU216HW,2013-04-25 21:17:00,
2013-04-25 14:22:00,71.6,36.6,30.04,North,0,4.0,12.3,28,0.00,,,0.00,WUHU216HW,2013-04-25 21:22:00,
2013-04-25 14:27:00,72.5,37.4,30.04,North,0,3.6,9.4,28,0.00,,,0.00,WUHU216HW,2013-04-25 21:27:00,
2013-04-25 14:32:00,73.6,36.3,30.04,North,0,4.3,9.4,26,0.00,,,0.00,WUHU216HW,2013-04-25 21:32:00,
2013-04-25 14:37:00,73.6,36.3,30.04,NNW,338,7.6,10.5,26,0.00,,,0.00,WUHU216HW,2013-04-25 21:37:00,
2013-04-25 14:42:00,74.0,36.5,30.04,North,0,7.8,11.2,26,0.00,,,0.00,WUHU216HW,2013-04-25 21:42:00,
2013-04-25 14:47:00,74.7,37.2,30.04,WNW,293,4.7,11.2,26,0.00,,,0.00,WUHU216HW,2013-04-25 21:47:00,
2013-04-25 14:52:00,74.9,36.4,30.04,NW,315,4.9,11.4,25,0.00,,,0.00,WUHU216HW,2013-04-25 21:52:00,
2013-04-25 14:57:00,75.1,36.5,30.04,West,270,7.6,11.4,25,0.00,,,0.00,WUHU216HW,2013-04-25 21:57:00,
2013-04-25 15:02:00,75.2,36.6,30.04,NNW,338,9.6,15.9,25,0.00,,,0.00,WUHU216HW,2013-04-25 22:02:00,
2013-04-25 15:07:00,75.4,35.7,30.04,NNW,338,8.7,15.9,24,0.00,,,0.00,WUHU216HW,2013-04-25 22:07:00,
2013-04-25 15:12:00,75.6,35.9,30.04,WNW,293,7.4,13.4,24,0.00,,,0.00,WUHU216HW,2013-04-25 22:12:00,
2013-04-25 15:17:00,75.2,36.6,30.04,North,0,5.8,10.3,25,0.00,,,0.00,WUHU216HW,2013-04-25 22:17:00,
2013-04-25 15:22:00,74.9,35.3,30.04,WNW,293,7.6,10.3,24,0.00,,,0.00,WUHU216HW,2013-04-25 22:22:00,
2013-04-25 15:27:00,75.2,36.6,30.04,NNW,338,6.0,10.7,25,0.00,,,0.00,WUHU216HW,2013-04-25 22:27:00,
2013-04-25 15:32:00,75.2,34.6,30.04,NW,315,6.9,14.1,23,0.00,,,0.00,WUHU216HW,2013-04-25 22:32:00,
2013-04-25 15:37:00,75.2,35.7,30.04,North,0,5.8,14.1,24,0.00,,,0.00,WUHU216HW,2013-04-25 22:37:00,
2013-04-25 15:42:00,75.2,34.6,30.04,West,270,9.2,11.6,23,0.00,,,0.00,WUHU216HW,2013-04-25 22:42:00,
2013-04-25 15:47:00,75.2,34.6,30.04,NW,315,10.3,11.6,23,0.00,,,0.00,WUHU216HW,2013-04-25 22:47:00,
2013-04-25 15:52:00,75.1,35.5,30.04,West,270,6.7,10.3,24,0.00,,,0.00,WUHU216HW,2013-04-25 22:52:00,
2013-04-25 15:57:00,75.2,35.7,30.04,WNW,293,5.4,12.8,24,0.00,,,0.00,WUHU216HW,2013-04-25 22:57:00,
2013-04-25 16:02:00,75.2,34.6,30.03,North,0,17.4,17.4,23,0.00,,,0.00,WUHU216HW,2013-04-25 23:02:00,
2013-04-25 16:07:00,75.6,35.9,30.04,NW,315,12.1,17.4,24,0.00,,,0.00,WUHU216HW,2013-04-25 23:07:00,
2013-04-25 16:12:00,76.1,34.3,30.04,NW,315,7.6,16.6,22,0.00,,,0.00,WUHU216HW,2013-04-25 23:12:00,
2013-04-25 16:17:00,76.7,34.8,30.04,West,270,8.5,12.5,22,0.00,,,0.00,WUHU216HW,2013-04-25 23:17:00,
2013-04-25 16:22:00,75.6,34.9,30.03,WNW,293,9.4,16.3,23,0.00,,,0.00,WUHU216HW,2013-04-25 23:22:00,
2013-04-25 16:27:00,76.3,34.5,30.04,NW,315,7.6,16.3,22,0.00,,,0.00,WUHU216HW,2013-04-25 23:27:00,
2013-04-25 16:32:00,77.0,36.1,30.04,NNW,338,4.7,11.9,23,0.00,,,0.00,WUHU216HW,2013-04-25 23:32:00,
2013-04-25 16:37:00,77.8,35.7,30.04,NNW,338,6.3,10.5,22,0.00,,,0.00,WUHU216HW,2013-04-25 23:37:00,
2013-04-25 16:42:00,77.2,35.2,30.04,NNW,338,8.7,10.5,22,0.00,,,0.00,WUHU216HW,2013-04-25 23:42:00,
2013-04-25 16:47:00,76.0,34.1,30.04,WNW,293,11.9,11.9,22,0.00,,,0.00,WUHU216HW,2013-04-25 23:47:00,
2013-04-25 16:52:00,74.9,33.3,30.04,NW,315,8.3,11.9,22,0.00,,,0.00,WUHU216HW,2013-04-25 23:52:00,
2013-04-25 16:57:00,74.3,33.9,30.04,NNW,338,11.0,11.9,23,0.00,,,0.00,WUHU216HW,2013-04-25 23:57:00,
2013-04-25 17:02:00,75.4,33.7,30.04,NNW,338,6.9,11.0,22,0.00,,,0.00,WUHU216HW,2013-04-26 00:02:00,
2013-04-25 17:07:00,75.4,34.8,30.04,West,270,7.2,13.4,23,0.00,,,0.00,WUHU216HW,2013-04-26 00:07:00,
2013-04-25 17:12:00,75.1,34.5,30.04,North,0,9.4,13.4,23,0.00,,,0.00,WUHU216HW,2013-04-26 00:12:00,
2013-04-25 17:17:00,75.1,35.5,30.04,NW,315,6.3,12.8,24,0.00,,,0.00,WUHU216HW,2013-04-26 00:17:00,
2013-04-25 17:21:00,75.4,34.8,30.04,North,0,10.3,11.0,23,0.00,,,0.00,WUHU216HW,2013-04-26 00:21:00,
2013-04-25 17:32:00,74.9,34.3,30.05,North,0,5.6,12.1,23,0.00,,,0.00,WUHU216HW,2013-04-26 00:32:00,
2013-04-25 17:42:00,74.2,35.7,30.05,North,0,9.6,9.8,25,0.00,,,0.00,WUHU216HW,2013-04-26 00:42:00,
2013-04-25 17:47:00,74.7,35.2,30.05,North,0,7.6,10.3,24,0.00,,,0.00,WUHU216HW,2013-04-26 00:47:00,
2013-04-25 17:52:00,74.7,36.2,30.05,WNW,293,6.3,10.3,25,0.00,,,0.00,WUHU216HW,2013-04-26 00:52:00,
2013-04-25 17:57:00,74.5,36.0,30.06,WNW,293,7.2,10.3,25,0.00,,,0.00,WUHU216HW,2013-04-26 00:57:00,
2013-04-25 18:02:00,73.1,34.8,30.06,North,0,10.3,12.5,25,0.00,,,0.00,WUHU216HW,2013-04-26 01:02:00,
2013-04-25 18:07:00,73.1,34.8,30.06,NW,315,3.4,12.5,25,0.00,,,0.00,WUHU216HW,2013-04-26 01:07:00,
2013-04-25 18:12:00,73.4,34.1,30.06,NW,315,5.1,10.7,24,0.00,,,0.00,WUHU216HW,2013-04-26 01:12:00,
2013-04-25 18:17:00,73.1,33.8,30.06,NNW,338,5.8,9.6,24,0.00,,,0.00,WUHU216HW,2013-04-26 01:17:00,
2013-04-25 18:22:00,72.9,33.7,30.06,NNW,338,7.4,9.6,24,0.00,,,0.00,WUHU216HW,2013-04-26 01:22:00,
2013-04-25 18:27:00,72.4,34.2,30.07,North,0,7.8,9.2,25,0.00,,,0.00,WUHU216HW,2013-04-26 01:27:00,
2013-04-25 18:32:00,71.6,33.6,30.07,NW,315,7.8,9.2,25,0.00,,,0.00,WUHU216HW,2013-04-26 01:32:00,
2013-04-25 18:37:00,71.6,33.6,30.06,North,0,5.1,7.8,25,0.00,,,0.00,WUHU216HW,2013-04-26 01:37:00,
2013-04-25 18:42:00,71.8,33.8,30.07,NNW,338,3.4,7.8,25,0.00,,,0.00,WUHU216HW,2013-04-26 01:42:00,
2013-04-25 18:47:00,72.0,34.9,30.07,NW,315,4.5,5.1,26,0.00,,,0.00,WUHU216HW,2013-04-26 01:47:00,
2013-04-25 18:52:00,71.6,34.6,30.07,North,0,5.8,5.8,26,0.00,,,0.00,WUHU216HW,2013-04-26 01:52:00,
2013-04-25 18:57:00,71.3,33.3,30.07,NW,315,3.4,5.8,25,0.00,,,0.00,WUHU216HW,2013-04-26 01:57:00,
2013-04-25 19:02:00,70.0,33.2,30.07,NNW,338,4.7,5.8,26,0.00,,,0.00,WUHU216HW,2013-04-26 02:02:00,
2013-04-25 19:07:00,69.3,33.6,30.07,NNW,338,4.0,9.8,27,0.00,,,0.00,WUHU216HW,2013-04-26 02:07:00,
2013-04-25 19:12:00,69.1,34.5,30.07,NNW,338,4.0,9.8,28,0.00,,,0.00,WUHU216HW,2013-04-26 02:12:00,
2013-04-25 19:17:00,68.8,34.1,30.07,North,0,4.3,4.3,28,0.00,,,0.00,WUHU216HW,2013-04-26 02:17:00,
2013-04-25 19:22:00,67.9,33.3,30.08,North,0,2.2,4.3,28,0.00,,,0.00,WUHU216HW,2013-04-26 02:22:00,
2013-04-25 19:27:00,67.1,33.8,30.08,NNE,23,3.4,3.6,29,0.00,,,0.00,WUHU216HW,2013-04-26 02:27:00,
2013-04-25 19:32:00,66.6,33.3,30.08,North,0,2.7,3.6,29,0.00,,,0.00,WUHU216HW,2013-04-26 02:32:00,
2013-04-25 19:37:00,65.9,33.7,30.08,North,0,4.5,6.9,30,0.00,,,0.00,WUHU216HW,2013-04-26 02:37:00,
2013-04-25 19:42:00,65.2,33.0,30.08,NNW,338,3.1,6.9,30,0.00,,,0.00,WUHU216HW,2013-04-26 02:42:00,
2013-04-25 19:47:00,65.0,32.9,30.08,North,0,2.7,4.5,30,0.00,,,0.00,WUHU216HW,2013-04-26 02:47:00,
2013-04-25 19:52:00,64.6,32.6,30.09,NNW,338,2.0,4.0,30,0.00,,,0.00,WUHU216HW,2013-04-26 02:52:00,
2013-04-25 19:57:00,64.4,32.4,30.09,NNW,338,3.8,3.8,30,0.00,,,0.00,WUHU216HW,2013-04-26 02:57:00,
2013-04-25 20:02:00,63.9,32.0,30.09,NNW,338,2.0,3.8,30,0.00,,,0.00,WUHU216HW,2013-04-26 03:02:00,
2013-04-25 20:07:00,63.5,32.3,30.09,North,0,2.2,3.8,31,0.00,,,0.00,WUHU216HW,2013-04-26 03:07:00,
2013-04-25 20:12:00,63.2,32.0,30.10,NNE,23,0.2,2.5,31,0.00,,,0.00,WUHU216HW,2013-04-26 03:12:00,
2013-04-25 20:17:00,62.8,31.7,30.10,SE,135,3.1,3.1,31,0.00,,,0.00,WUHU216HW,2013-04-26 03:17:00,
2013-04-25 20:22:00,62.3,31.9,30.11,SE,135,2.0,3.4,32,0.00,,,0.00,WUHU216HW,2013-04-26 03:22:00,
2013-04-25 20:27:00,61.6,32.0,30.11,SSW,203,0.9,3.4,33,0.00,,,0.00,WUHU216HW,2013-04-26 03:27:00,
2013-04-25 20:32:00,61.7,32.1,30.10,SSW,203,1.1,2.2,33,0.00,,,0.00,WUHU216HW,2013-04-26 03:32:00,
2013-04-25 20:37:00,61.4,31.8,30.10,NW,315,1.6,1.8,33,0.00,,,0.00,WUHU216HW,2013-04-26 03:37:00,
2013-04-25 20:42:00,60.3,31.6,30.10,NNW,338,0.4,1.8,34,0.00,,,0.00,WUHU216HW,2013-04-26 03:42:00,
2013-04-25 20:47:00,59.6,33.1,30.11,NE,45,1.8,2.5,37,0.00,,,0.00,WUHU216HW,2013-04-26 03:47:00,
2013-04-25 20:52:00,59.4,32.9,30.11,East,90,1.3,3.4,37,0.00,,,0.00,WUHU216HW,2013-04-26 03:52:00,
2013-04-25 20:57:00,59.2,32.1,30.11,East,90,0.2,3.4,36,0.00,,,0.00,WUHU216HW,2013-04-26 03:57:00,
2013-04-25 21:02:00,58.9,31.8,30.11,East,90,0.9,1.3,36,0.00,,,0.00,WUHU216HW,2013-04-26 04:02:00,
2013-04-25 21:07:00,58.3,32.0,30.11,East,90,1.8,1.8,37,0.00,,,0.00,WUHU216HW,2013-04-26 04:07:00,
2013-04-25 21:12:00,58.0,32.4,30.12,East,90,1.1,1.8,38,0.00,,,0.00,WUHU216HW,2013-04-26 04:12:00,
2013-04-25 21:17:00,57.4,32.6,30.12,East,90,1.3,2.2,39,0.00,,,0.00,WUHU216HW,2013-04-26 04:17:00,
2013-04-25 21:22:00,57.1,32.9,30.12,East,90,0.7,2.2,40,0.00,,,0.00,WUHU216HW,2013-04-26 04:22:00,
2013-04-25 21:27:00,56.5,33.0,30.12,East,90,0.7,1.3,41,0.00,,,0.00,WUHU216HW,2013-04-26 04:27:00,
2013-04-25 21:32:00,56.0,32.6,30.12,East,90,1.3,1.3,41,0.00,,,0.00,WUHU216HW,2013-04-26 04:32:00,
2013-04-25 21:37:00,55.4,33.2,30.12,East,90,1.3,1.6,43,0.00,,,0.00,WUHU216HW,2013-04-26 04:37:00,
2013-04-25 21:42:00,55.1,33.4,30.13,East,90,1.6,1.6,44,0.00,,,0.00,WUHU216HW,2013-04-26 04:42:00,
2013-04-25 21:47:00,55.3,33.6,30.13,East,90,2.7,2.7,44,0.00,,,0.00,WUHU216HW,2013-04-26 04:47:00,
2013-04-25 21:52:00,56.0,33.1,30.13,ESE,113,0.0,2.7,42,0.00,,,0.00,WUHU216HW,2013-04-26 04:52:00,
2013-04-25 21:57:00,55.6,32.8,30.13,NNE,23,1.3,1.8,42,0.00,,,0.00,WUHU216HW,2013-04-26 04:57:00,
2013-04-25 22:02:00,55.1,32.9,30.13,NNE,23,1.1,1.3,43,0.00,,,0.00,WUHU216HW,2013-04-26 05:02:00,
2013-04-25 22:07:00,54.2,33.8,30.13,NNE,23,1.1,1.6,46,0.00,,,0.00,WUHU216HW,2013-04-26 05:07:00,
2013-04-25 22:12:00,53.8,33.4,30.13,NNE,23,1.1,1.6,46,0.00,,,0.00,WUHU216HW,2013-04-26 05:12:00,
2013-04-25 22:17:00,53.6,33.2,30.13,NNE,23,1.1,1.3,46,0.00,,,0.00,WUHU216HW,2013-04-26 05:17:00,
2013-04-25 22:22:00,53.5,33.0,30.14,ESE,113,1.8,2.2,46,0.00,,,0.00,WUHU216HW,2013-04-26 05:22:00,
2013-04-25 22:27:00,53.3,33.0,30.13,ESE,113,0.4,2.2,46,0.00,,,0.00,WUHU216HW,2013-04-26 05:27:00,
2013-04-25 22:32:00,52.9,32.6,30.14,ESE,113,0.9,1.8,46,0.00,,,0.00,WUHU216HW,2013-04-26 05:32:00,
2013-04-25 22:37:00,52.4,32.1,30.14,ESE,113,1.1,1.1,46,0.00,,,0.00,WUHU216HW,2013-04-26 05:37:00,
2013-04-25 22:42:00,52.2,32.5,30.13,ESE,113,0.0,1.1,47,0.00,,,0.00,WUHU216HW,2013-04-26 05:42:00,
2013-04-25 22:47:00,51.8,32.8,30.14,ENE,68,1.1,1.8,48,0.00,,,0.00,WUHU216HW,2013-04-26 05:47:00,
2013-04-25 22:52:00,51.3,32.2,30.14,ENE,68,1.3,1.8,48,0.00,,,0.00,WUHU216HW,2013-04-26 05:52:00,
2013-04-25 22:57:00,50.8,31.8,30.14,ENE,68,0.7,1.8,48,0.00,,,0.00,WUHU216HW,2013-04-26 05:57:00,
2013-04-25 23:02:00,50.4,31.4,30.14,ENE,68,1.1,1.6,48,0.00,,,0.00,WUHU216HW,2013-04-26 06:02:00,
2013-04-25 23:07:00,50.6,32.1,30.14,ENE,68,0.0,1.1,49,0.00,,,0.00,WUHU216HW,2013-04-26 06:07:00,
2013-04-25 23:12:00,50.8,32.3,30.14,ENE,68,0.0,1.1,49,0.00,,,0.00,WUHU216HW,2013-04-26 06:12:00,
2013-04-25 23:17:00,50.9,32.5,30.14,ENE,68,0.0,0.4,49,0.00,,,0.00,WUHU216HW,2013-04-26 06:17:00,
2013-04-25 23:22:00,50.9,32.0,30.14,ENE,68,0.4,1.1,48,0.00,,,0.00,WUHU216HW,2013-04-26 06:22:00,
2013-04-25 23:27:00,50.9,32.5,30.14,ENE,68,0.0,1.1,49,0.00,,,0.00,WUHU216HW,2013-04-26 06:27:00,
2013-04-25 23:32:00,50.9,32.5,30.14,ENE,68,0.7,1.3,49,0.00,,,0.00,WUHU216HW,2013-04-26 06:32:00,
2013-04-25 23:37:00,50.8,32.3,30.14,ENE,68,0.0,1.3,49,0.00,,,0.00,WUHU216HW,2013-04-26 06:37:00,
2013-04-25 23:42:00,50.2,32.4,30.14,East,90,1.8,1.8,50,0.00,,,0.00,WUHU216HW,2013-04-26 06:42:00,
2013-04-25 23:47:00,51.1,32.7,30.14,East,90,1.6,2.2,49,0.00,,,0.00,WUHU216HW,2013-04-26 06:47:00,
2013-04-25 23:52:00,51.5,32.4,30.14,ESE,113,1.1,2.2,48,0.00,,,0.00,WUHU216HW,2013-04-26 06:52:00,
2013-04-25 23:57:00,50.9,32.0,30.14,SE,135,0.0,1.8,48,0.00,,,0.00,WUHU216HW,2013-04-26 06:57:00,